,,Stat5,,Stat1,,Stat2,,Stat3,,Stat4,,Wind1,,Wind1,
time,status,PA1M_AVG,status,PR1M_SUM,status,RH1M_AVG,status,SR1M_AVG,status,TA1M_AVG,status,W1dAve1m,status,W1sAve1m,
2002-02-07, 00:00:00,VALID,918.723,VALID,0,VALID,93.1018,VALID,-0.0339617,VALID,19.6707,VALID,56,VALID,0.70625,
2002-02-07, 00:01:00,VALID,918.718,VALID,0,VALID,92.85,VALID,-0.0509425,VALID,19.6197,VALID,67,VALID,0.61263,
2002-02-07, 00:02:00,VALID,918.722,VALID,0,VALID,93.0535,VALID,-0.0679233,VALID,19.5685,VALID,53,VALID,0.637109,
2002-02-07, 00:03:00,VALID,918.712,VALID,0,VALID,93.276,VALID,-0.0509425,VALID,19.5355,VALID,52,VALID,0.728795,
2002-02-07, 00:04:00,VALID,918.693,VALID,0,VALID,93.9614,VALID,-0.0339617,VALID,19.5288,VALID,77,VALID,0.837941,
2002-02-07, 00:05:00,VALID,918.678,VALID,0,VALID,94.0949,VALID,-0.0679233,VALID,19.5357,VALID,71,VALID,0.858154,
2002-02-07, 00:06:00,VALID,918.652,VALID,0,VALID,94.2373,VALID,-0.0509425,VALID,19.5521,VALID,76,VALID,0.733742,
2002-02-07, 00:07:00,VALID,918.644,VALID,0,VALID,94.2234,VALID,-0.0339617,VALID,19.5648,VALID,78,VALID,0.616806,
2002-02-07, 00:08:00,VALID,918.639,VALID,0,VALID,94.3289,VALID,-0.0339617,VALID,19.5678,VALID,73,VALID,0.715745,
2002-02-07, 00:09:00,VALID,918.638,VALID,0,VALID,94.3162,VALID,-0.0849042,VALID,19.5842,VALID,82,VALID,0.641426,
2002-02-07, 00:10:00,VALID,918.64,VALID,0,VALID,94.1865,VALID,-0.0679233,VALID,19.5772,VALID,87,VALID,0.571875,
2002-02-07, 00:11:00,VALID,918.641,VALID,0,VALID,94.1878,VALID,-0.101885,VALID,19.5944,VALID,100,VALID,0.495313,
2002-02-07, 00:12:00,VALID,918.638,VALID,0,VALID,94.264,VALID,-0.0849042,VALID,19.5879,VALID,102,VALID,0.492383,
2002-02-07, 00:13:00,VALID,918.637,VALID,0,VALID,94.423,VALID,-0.0509425,VALID,19.5842,VALID,130,VALID,0.601758,
2002-02-07, 00:14:00,VALID,918.642,VALID,0,VALID,94.3721,VALID,-0.0849042,VALID,19.5973,VALID,127,VALID,0.325802,
2002-02-07, 00:15:00,VALID,918.644,VALID,0,VALID,94.2679,VALID,-0.101885,VALID,19.5877,VALID,133,VALID,0.248047,
2002-02-07, 00:16:00,VALID,918.649,VALID,0,VALID,94.2424,VALID,-0.0849042,VALID,19.5946,VALID,117,VALID,0.392411,
2002-02-07, 00:17:00,VALID,918.641,VALID,0,VALID,94.2005,VALID,-0.0849042,VALID,19.572,VALID,124,VALID,0.5019,
2002-02-07, 00:18:00,VALID,918.638,VALID,0,VALID,94.231,VALID,-0.101885,VALID,19.5491,VALID,140,VALID,0.660473,
2002-02-07, 00:19:00,VALID,918.624,VALID,0,VALID,94.2488,VALID,-0.0509425,VALID,19.5454,VALID,152,VALID,0.681691,
2002-02-07, 00:20:00,VALID,918.604,VALID,0,VALID,94.2323,VALID,-0.0509425,VALID,19.5226,VALID,155,VALID,0.844151,
2002-02-07, 00:21:00,VALID,918.577,VALID,0,VALID,94.2818,VALID,-0.0509425,VALID,19.5293,VALID,139,VALID,0.72567,
2002-02-07, 00:22:00,VALID,918.566,VALID,0,VALID,94.2679,VALID,-0.0849042,VALID,19.5263,VALID,151,VALID,0.741776,
2002-02-07, 00:23:00,VALID,918.545,VALID,0,VALID,94.2297,VALID,-0.0509425,VALID,19.5158,VALID,154,VALID,0.477163,
2002-02-07, 00:24:00,VALID,918.525,VALID,0,VALID,94.2526,VALID,0.0339617,VALID,19.5151,VALID,141,VALID,0.610156,
2002-02-07, 00:25:00,VALID,918.516,VALID,0,VALID,94.3709,VALID,0.0169808,VALID,19.5116,VALID,140,VALID,0.793074,
2002-02-07, 00:26:00,VALID,918.504,VALID,0,VALID,94.3925,VALID,0,VALID,19.5285,VALID,146,VALID,0.808277,
2002-02-07, 00:27:00,VALID,918.494,VALID,0,VALID,94.4726,VALID,0.0169808,VALID,19.5352,VALID,149,VALID,0.613498,
2002-02-07, 00:28:00,VALID,918.496,VALID,0,VALID,94.451,VALID,0,VALID,19.5377,VALID,143,VALID,0.990039,
2002-02-07, 00:29:00,VALID,918.496,VALID,0,VALID,94.3518,VALID,0.0169808,VALID,19.5539,VALID,125,VALID,0.680078,
2002-02-07, 00:30:00,VALID,918.493,VALID,0,VALID,94.2628,VALID,0.0169808,VALID,19.5668,VALID,132,VALID,0.616787,
2002-02-07, 00:31:00,VALID,918.495,VALID,0,VALID,94.1992,VALID,0.0169808,VALID,19.5703,VALID,154,VALID,0.75601,
2002-02-07, 00:32:00,VALID,918.504,VALID,0,VALID,94.1636,VALID,0.0339617,VALID,19.5867,VALID,158,VALID,0.849777,
2002-02-07, 00:33:00,VALID,918.5,VALID,0,VALID,94.0097,VALID,0.0509425,VALID,19.5733,VALID,163,VALID,0.736779,
2002-02-07, 00:34:00,VALID,918.491,VALID,0,VALID,93.8266,VALID,0.0339617,VALID,19.5735,VALID,165,VALID,0.89597,
2002-02-07, 00:35:00,VALID,918.49,VALID,0,VALID,93.8241,VALID,0.0339617,VALID,19.5578,VALID,158,VALID,0.488692,
2002-02-07, 00:36:00,VALID,918.478,VALID,0,VALID,93.8482,VALID,0.0339617,VALID,19.5283,VALID,156,VALID,0.709852,
2002-02-07, 00:37:00,VALID,918.475,VALID,0,VALID,93.9487,VALID,0,VALID,19.5024,VALID,164,VALID,0.934245,
2002-02-07, 00:38:00,VALID,918.478,VALID,0,VALID,94.086,VALID,0.0339617,VALID,19.4925,VALID,169,VALID,1.02344,
2002-02-07, 00:39:00,VALID,918.474,VALID,0,VALID,94.0746,VALID,0.0169808,VALID,19.4438,VALID,172,VALID,1.08699,
2002-02-07, 00:40:00,VALID,918.477,VALID,0,VALID,94.2043,VALID,0.0679233,VALID,19.4023,VALID,166,VALID,0.939303,
2002-02-07, 00:41:00,VALID,918.473,VALID,0,VALID,94.4052,VALID,0.0169808,VALID,19.3732,VALID,156,VALID,1.07833,
2002-02-07, 00:42:00,VALID,918.472,VALID,0,VALID,94.7892,VALID,0.0509425,VALID,19.3472,VALID,155,VALID,1.24419,
2002-02-07, 00:43:00,VALID,918.465,VALID,0,VALID,94.9278,VALID,0.0679233,VALID,19.3248,VALID,159,VALID,0.863616,
2002-02-07, 00:44:00,VALID,918.452,VALID,0,VALID,95.0613,VALID,0.0169808,VALID,19.2987,VALID,164,VALID,0.946289,
2002-02-07, 00:45:00,VALID,918.434,VALID,0,VALID,95.1872,VALID,0.0169808,VALID,19.2893,VALID,155,VALID,1.33145,
2002-02-07, 00:46:00,VALID,918.432,VALID,0,VALID,95.2381,VALID,0.0169808,VALID,19.2597,VALID,161,VALID,0.931836,
2002-02-07, 00:47:00,VALID,918.444,VALID,0,VALID,95.3271,VALID,0.0169808,VALID,19.2371,VALID,152,VALID,1.27196,
2002-02-07, 00:48:00,VALID,918.442,VALID,0,VALID,95.3805,VALID,-0.0169808,VALID,19.2281,VALID,155,VALID,0.916233,
2002-02-07, 00:49:00,VALID,918.443,VALID,0,VALID,95.3207,VALID,-0.0509425,VALID,19.2129,VALID,147,VALID,0.882366,
2002-02-07, 00:50:00,VALID,918.437,VALID,0,VALID,95.2012,VALID,-0.0509425,VALID,19.2072,VALID,142,VALID,0.789485,
2002-02-07, 00:51:00,VALID,918.419,VALID,0,VALID,95.2534,VALID,-0.0509425,VALID,19.1739,VALID,158,VALID,1.41301,
2002-02-07, 00:52:00,VALID,918.409,VALID,0,VALID,95.2508,VALID,-0.0339617,VALID,19.1848,VALID,161,VALID,0.937099,
2002-02-07, 00:53:00,VALID,918.398,VALID,0,VALID,95.2915,VALID,-0.0679233,VALID,19.1714,VALID,163,VALID,1.65244,
2002-02-07, 00:54:00,VALID,918.394,VALID,0,VALID,95.2635,VALID,-0.101885,VALID,19.1906,VALID,160,VALID,1.29888,
2002-02-07, 00:55:00,VALID,918.366,VALID,0,VALID,95.0791,VALID,-0.101885,VALID,19.2008,VALID,158,VALID,0.729441,
2002-02-07, 00:56:00,VALID,918.339,VALID,0,VALID,94.8948,VALID,-0.0849042,VALID,19.201,VALID,155,VALID,0.850761,
2002-02-07, 00:57:00,VALID,918.316,VALID,0,VALID,94.8414,VALID,-0.101885,VALID,19.1871,VALID,158,VALID,1.51172,
2002-02-07, 00:58:00,VALID,918.3,VALID,0,VALID,94.7892,VALID,-0.0509425,VALID,19.1846,VALID,155,VALID,1.40034,
2002-02-07, 00:59:00,VALID,918.297,VALID,0,VALID,94.7943,VALID,-0.0849042,VALID,19.1677,VALID,157,VALID,1.84692,
2002-02-07, 01:00:00,VALID,918.289,VALID,0,VALID,94.8566,VALID,-0.0849042,VALID,19.1742,VALID,152,VALID,1.7309,
2002-02-07, 01:01:00,VALID,918.28,VALID,0,VALID,94.8108,VALID,-0.0679233,VALID,19.1876,VALID,151,VALID,1.54043,
2002-02-07, 01:02:00,VALID,918.275,VALID,0,VALID,94.6862,VALID,-0.0679233,VALID,19.2003,VALID,141,VALID,1.63418,
2002-02-07, 01:03:00,VALID,918.266,VALID,0,VALID,94.451,VALID,-0.0849042,VALID,19.2264,VALID,171,VALID,1.0613,
2002-02-07, 01:04:00,VALID,918.274,VALID,0,VALID,94.231,VALID,-0.0509425,VALID,19.2231,VALID,151,VALID,1.20132,
2002-02-07, 01:05:00,VALID,918.255,VALID,0,VALID,94.1165,VALID,-0.0679233,VALID,19.2033,VALID,155,VALID,1.25022,
2002-02-07, 01:06:00,VALID,918.236,VALID,0,VALID,94.0275,VALID,-0.0849042,VALID,19.197,VALID,158,VALID,1.10036,
2002-02-07, 01:07:00,VALID,918.226,VALID,0,VALID,93.8241,VALID,-0.0339617,VALID,19.1933,VALID,145,VALID,1.7134,
2002-02-07, 01:08:00,VALID,918.211,VALID,0,VALID,93.6155,VALID,-0.0679233,VALID,19.2134,VALID,150,VALID,1.2685,
2002-02-07, 01:09:00,VALID,918.196,VALID,0,VALID,93.3841,VALID,-0.0679233,VALID,19.2129,VALID,152,VALID,1.97201,
2002-02-07, 01:10:00,VALID,918.193,VALID,0,VALID,93.1934,VALID,-0.0849042,VALID,19.2298,VALID,145,VALID,1.64345,
2002-02-07, 01:11:00,VALID,918.188,VALID,0,VALID,92.981,VALID,-0.101885,VALID,19.2328,VALID,156,VALID,1.26195,
2002-02-07, 01:12:00,VALID,918.173,VALID,0,VALID,92.9505,VALID,-0.0849042,VALID,19.2554,VALID,159,VALID,1.27808,
2002-02-07, 01:13:00,VALID,918.157,VALID,0,VALID,92.9034,VALID,-0.0679233,VALID,19.239,VALID,155,VALID,1.57111,
2002-02-07, 01:14:00,VALID,918.132,VALID,0,VALID,92.9187,VALID,-0.0679233,VALID,19.2423,VALID,145,VALID,1.62901,
2002-02-07, 01:15:00,VALID,918.107,VALID,0,VALID,92.9632,VALID,-0.0849042,VALID,19.2395,VALID,144,VALID,1.10477,
2002-02-07, 01:16:00,VALID,918.082,VALID,0,VALID,93.0141,VALID,-0.101885,VALID,19.2167,VALID,139,VALID,0.74375,
2002-02-07, 01:17:00,VALID,918.05,VALID,0,VALID,93.1616,VALID,-0.0509425,VALID,19.1908,VALID,136,VALID,1.10059,
2002-02-07, 01:18:00,VALID,918.037,VALID,0,VALID,93.2073,VALID,-0.0339617,VALID,19.1811,VALID,149,VALID,0.948828,
2002-02-07, 01:19:00,VALID,918.032,VALID,0,VALID,93.229,VALID,-0.0509425,VALID,19.1456,VALID,132,VALID,1.22187,
2002-02-07, 01:20:00,VALID,918.03,VALID,0,VALID,93.2353,VALID,-0.0849042,VALID,19.1295,VALID,149,VALID,0.987965,
2002-02-07, 01:21:00,VALID,918.014,VALID,0,VALID,93.187,VALID,-0.0849042,VALID,19.1267,VALID,151,VALID,1.53516,
2002-02-07, 01:22:00,VALID,918.006,VALID,0,VALID,93.1883,VALID,-0.0849042,VALID,19.1138,VALID,153,VALID,1.06629,
2002-02-07, 01:23:00,VALID,917.993,VALID,0,VALID,93.2112,VALID,-0.0339617,VALID,19.1101,VALID,159,VALID,1.11233,
2002-02-07, 01:24:00,VALID,917.974,VALID,0,VALID,93.1934,VALID,0,VALID,19.0922,VALID,143,VALID,0.958193,
2002-02-07, 01:25:00,VALID,917.95,VALID,0,VALID,93.2251,VALID,0,VALID,19.0895,VALID,119,VALID,0.520833,
2002-02-07, 01:26:00,VALID,917.94,VALID,0,VALID,93.1438,VALID,0,VALID,19.0634,VALID,120,VALID,1.01522,
2002-02-07, 01:27:00,VALID,917.935,VALID,0,VALID,93.1438,VALID,0.0339617,VALID,19.0373,VALID,77,VALID,0.378348,
2002-02-07, 01:28:00,VALID,917.938,VALID,0,VALID,93.2646,VALID,0.0169808,VALID,19.0314,VALID,139,VALID,0.372533,
2002-02-07, 01:29:00,VALID,917.93,VALID,0,VALID,93.2836,VALID,0,VALID,19.009,VALID,137,VALID,0.323317,
2002-02-07, 01:30:00,VALID,917.92,VALID,0,VALID,93.3688,VALID,0,VALID,18.9931,VALID,122,VALID,0.276953,
2002-02-07, 01:31:00,VALID,917.918,VALID,0,VALID,93.6308,VALID,0.0169808,VALID,18.9827,VALID,138,VALID,0.966005,
2002-02-07, 01:32:00,VALID,917.884,VALID,0,VALID,93.468,VALID,0.0169808,VALID,18.9794,VALID,103,VALID,0.722128,
2002-02-07, 01:33:00,VALID,917.883,VALID,0,VALID,93.4769,VALID,0,VALID,18.9638,VALID,71,VALID,0.521115,
2002-02-07, 01:34:00,VALID,917.883,VALID,0,VALID,93.3841,VALID,0,VALID,18.9538,VALID,77,VALID,0.445313,
2002-02-07, 01:35:00,VALID,917.88,VALID,0,VALID,93.5926,VALID,0.0169808,VALID,18.9442,VALID,80,VALID,0.629687,
2002-02-07, 01:36:00,VALID,917.862,VALID,0,VALID,93.4782,VALID,0.0679233,VALID,18.9211,VALID,76,VALID,0.554287,
2002-02-07, 01:37:00,VALID,917.86,VALID,0,VALID,93.4248,VALID,0,VALID,18.9119,VALID,70,VALID,0.752003,
2002-02-07, 01:38:00,VALID,917.846,VALID,0,VALID,93.6626,VALID,-0.0169808,VALID,18.88,VALID,72,VALID,0.845759,
2002-02-07, 01:39:00,VALID,917.845,VALID,0,VALID,93.9067,VALID,-0.0849042,VALID,18.8611,VALID,77,VALID,1.0002,
2002-02-07, 01:40:00,VALID,917.827,VALID,0,VALID,94.1776,VALID,-0.0339617,VALID,18.8415,VALID,90,VALID,0.980674,
2002-02-07, 01:41:00,VALID,917.808,VALID,0,VALID,94.5095,VALID,-0.0339617,VALID,18.8487,VALID,96,VALID,0.890214,
2002-02-07, 01:42:00,VALID,917.794,VALID,0,VALID,94.6468,VALID,-0.0679233,VALID,18.8676,VALID,116,VALID,0.858073,
2002-02-07, 01:43:00,VALID,917.783,VALID,0,VALID,94.5947,VALID,-0.0339617,VALID,18.9135,VALID,124,VALID,0.900825,
2002-02-07, 01:44:00,VALID,917.756,VALID,0,VALID,94.437,VALID,-0.0169808,VALID,18.919,VALID,129,VALID,1.05101,
2002-02-07, 01:45:00,VALID,917.738,VALID,0,VALID,94.3314,VALID,-0.0339617,VALID,18.922,VALID,124,VALID,0.830025,
2002-02-07, 01:46:00,VALID,917.711,VALID,0,VALID,94.2551,VALID,-0.0339617,VALID,18.9419,VALID,133,VALID,0.670473,
2002-02-07, 01:47:00,VALID,917.706,VALID,0,VALID,94.2628,VALID,0,VALID,18.9516,VALID,121,VALID,0.898237,
2002-02-07, 01:48:00,VALID,917.681,VALID,0,VALID,94.2488,VALID,-0.0509425,VALID,18.9615,VALID,125,VALID,0.813502,
2002-02-07, 01:49:00,VALID,917.684,VALID,0,VALID,94.3543,VALID,-0.0509425,VALID,18.9647,VALID,114,VALID,1.08482,
2002-02-07, 01:50:00,VALID,917.661,VALID,0,VALID,94.4039,VALID,-0.0679233,VALID,18.9642,VALID,108,VALID,1.01484,
2002-02-07, 01:51:00,VALID,917.639,VALID,0,VALID,94.629,VALID,-0.0339617,VALID,18.9843,VALID,111,VALID,1.17383,
2002-02-07, 01:52:00,VALID,917.621,VALID,0,VALID,94.6799,VALID,-0.0509425,VALID,19.0099,VALID,102,VALID,1.07031,
2002-02-07, 01:53:00,VALID,917.618,VALID,0,VALID,94.4472,VALID,-0.0679233,VALID,19.0296,VALID,94,VALID,0.818834,
2002-02-07, 01:54:00,VALID,917.615,VALID,0,VALID,94.4993,VALID,-0.0679233,VALID,19.0097,VALID,88,VALID,0.957682,
2002-02-07, 01:55:00,VALID,917.633,VALID,0,VALID,94.6443,VALID,-0.0339617,VALID,19.0132,VALID,106,VALID,1.06228,
2002-02-07, 01:56:00,VALID,917.624,VALID,0,VALID,95.0257,VALID,0,VALID,19.0291,VALID,116,VALID,1.13851,
2002-02-07, 01:57:00,VALID,917.611,VALID,0,VALID,94.7587,VALID,-0.0339617,VALID,19.0254,VALID,119,VALID,0.94489,
2002-02-07, 01:58:00,VALID,917.598,VALID,0,VALID,94.7358,VALID,-0.0509425,VALID,19.0323,VALID,113,VALID,0.96254,
2002-02-07, 01:59:00,VALID,917.568,VALID,0,VALID,94.7841,VALID,-0.0339617,VALID,19.0189,VALID,118,VALID,1.0599,
2002-02-07, 02:00:00,VALID,917.552,VALID,0,VALID,94.9889,VALID,-0.0339617,VALID,19.0162,VALID,114,VALID,1.24777,
2002-02-07, 02:01:00,VALID,917.552,VALID,0,VALID,95.1364,VALID,-0.0169808,VALID,19.0221,VALID,117,VALID,0.974507,
2002-02-07, 02:02:00,VALID,917.551,VALID,0,VALID,95.1669,VALID,-0.0509425,VALID,19.0515,VALID,130,VALID,0.987981,
2002-02-07, 02:03:00,VALID,917.545,VALID,0,VALID,95.186,VALID,-0.0169808,VALID,19.0678,VALID,122,VALID,1.35469,
2002-02-07, 02:04:00,VALID,917.536,VALID,0,VALID,95.083,VALID,-0.0679233,VALID,19.1004,VALID,119,VALID,0.952703,
2002-02-07, 02:05:00,VALID,917.534,VALID,0,VALID,94.8757,VALID,-0.0509425,VALID,19.0872,VALID,121,VALID,1.15752,
2002-02-07, 02:06:00,VALID,917.535,VALID,0,VALID,94.7485,VALID,-0.0169808,VALID,19.0711,VALID,116,VALID,0.935113,
2002-02-07, 02:07:00,VALID,917.525,VALID,0,VALID,94.6748,VALID,-0.0679233,VALID,19.0619,VALID,118,VALID,1.14102,
2002-02-07, 02:08:00,VALID,917.509,VALID,0,VALID,94.8108,VALID,-0.0509425,VALID,19.0187,VALID,122,VALID,1.15,
2002-02-07, 02:09:00,VALID,917.496,VALID,0,VALID,95.0423,VALID,-0.0339617,VALID,19.0236,VALID,130,VALID,0.930088,
2002-02-07, 02:10:00,VALID,917.476,VALID,0,VALID,94.9622,VALID,-0.0509425,VALID,19,VALID,139,VALID,0.945112,
2002-02-07, 02:11:00,VALID,917.454,VALID,0,VALID,95.0474,VALID,-0.0339617,VALID,18.991,VALID,134,VALID,0.983259,
2002-02-07, 02:12:00,VALID,917.44,VALID,0,VALID,95.144,VALID,-0.0339617,VALID,18.9583,VALID,129,VALID,1.10016,
2002-02-07, 02:13:00,VALID,917.441,VALID,0,VALID,95.2597,VALID,-0.0339617,VALID,18.9416,VALID,138,VALID,0.900493,
2002-02-07, 02:14:00,VALID,917.424,VALID,0,VALID,95.3373,VALID,-0.0509425,VALID,18.9223,VALID,131,VALID,1.03762,
2002-02-07, 02:15:00,VALID,917.418,VALID,0,VALID,95.3246,VALID,-0.0169808,VALID,18.9126,VALID,135,VALID,0.877604,
2002-02-07, 02:16:00,VALID,917.396,VALID,0,VALID,95.3767,VALID,-0.0339617,VALID,18.8994,VALID,134,VALID,0.909505,
2002-02-07, 02:17:00,VALID,917.373,VALID,0,VALID,95.3945,VALID,-0.0169808,VALID,18.9034,VALID,135,VALID,0.940257,
2002-02-07, 02:18:00,VALID,917.348,VALID,0,VALID,95.3449,VALID,0,VALID,18.884,VALID,140,VALID,1.18539,
2002-02-07, 02:19:00,VALID,917.315,VALID,0,VALID,95.4136,VALID,-0.0169808,VALID,18.8773,VALID,139,VALID,1.27304,
2002-02-07, 02:20:00,VALID,917.302,VALID,0,VALID,95.3983,VALID,0,VALID,18.8671,VALID,142,VALID,1.27043,
2002-02-07, 02:21:00,VALID,917.29,VALID,0,VALID,95.3487,VALID,-0.0509425,VALID,18.8644,VALID,142,VALID,1.33834,
2002-02-07, 02:22:00,VALID,917.275,VALID,0,VALID,95.3551,VALID,-0.0339617,VALID,18.8646,VALID,145,VALID,1.45603,
2002-02-07, 02:23:00,VALID,917.259,VALID,0,VALID,95.294,VALID,0,VALID,18.8475,VALID,149,VALID,1.33887,
2002-02-07, 02:24:00,VALID,917.249,VALID,0,VALID,95.3055,VALID,-0.0169808,VALID,18.8611,VALID,135,VALID,1.07324,
2002-02-07, 02:25:00,VALID,917.239,VALID,0,VALID,95.2267,VALID,-0.0169808,VALID,18.8577,VALID,132,VALID,0.83418,
2002-02-07, 02:26:00,VALID,917.224,VALID,0,VALID,95.2343,VALID,-0.0509425,VALID,18.8708,VALID,126,VALID,0.860853,
2002-02-07, 02:27:00,VALID,917.22,VALID,0,VALID,95.0944,VALID,-0.0509425,VALID,18.8741,VALID,128,VALID,0.873264,
2002-02-07, 02:28:00,VALID,917.22,VALID,0,VALID,95.1198,VALID,-0.0169808,VALID,18.8676,VALID,139,VALID,0.837723,
2002-02-07, 02:29:00,VALID,917.22,VALID,0,VALID,95.3004,VALID,-0.0169808,VALID,18.8745,VALID,132,VALID,0.893581,
2002-02-07, 02:30:00,VALID,917.2,VALID,0,VALID,95.2979,VALID,-0.0169808,VALID,18.8835,VALID,138,VALID,1.03083,
2002-02-07, 02:31:00,VALID,917.184,VALID,0,VALID,95.191,VALID,-0.0509425,VALID,18.8904,VALID,141,VALID,0.746995,
2002-02-07, 02:32:00,VALID,917.183,VALID,0,VALID,95.1198,VALID,-0.0169808,VALID,18.8805,VALID,145,VALID,0.69371,
2002-02-07, 02:33:00,VALID,917.173,VALID,0,VALID,94.9838,VALID,-0.0509425,VALID,18.8745,VALID,146,VALID,0.5375,
2002-02-07, 02:34:00,VALID,917.162,VALID,0,VALID,94.8757,VALID,-0.0169808,VALID,18.8648,VALID,155,VALID,0.919613,
2002-02-07, 02:35:00,VALID,917.146,VALID,0,VALID,94.7396,VALID,-0.0679233,VALID,18.8221,VALID,142,VALID,0.69391,
2002-02-07, 02:36:00,VALID,917.124,VALID,0,VALID,94.6824,VALID,-0.0339617,VALID,18.7965,VALID,154,VALID,1.25996,
2002-02-07, 02:37:00,VALID,917.111,VALID,0,VALID,94.7536,VALID,-0.0169808,VALID,18.7742,VALID,151,VALID,1.2576,
2002-02-07, 02:38:00,VALID,917.102,VALID,0,VALID,94.835,VALID,-0.0339617,VALID,18.7548,VALID,147,VALID,1.14569,
2002-02-07, 02:39:00,VALID,917.098,VALID,0,VALID,94.8935,VALID,-0.101885,VALID,18.7255,VALID,146,VALID,1.00391,
2002-02-07, 02:40:00,VALID,917.097,VALID,0,VALID,94.952,VALID,-0.0509425,VALID,18.7165,VALID,151,VALID,1.21133,
2002-02-07, 02:41:00,VALID,917.102,VALID,0,VALID,95.013,VALID,-0.0849042,VALID,18.6676,VALID,147,VALID,0.935156,
2002-02-07, 02:42:00,VALID,917.107,VALID,0,VALID,95.1402,VALID,-0.101885,VALID,18.6551,VALID,157,VALID,1.04187,
2002-02-07, 02:43:00,VALID,917.114,VALID,0,VALID,95.2928,VALID,-0.101885,VALID,18.6425,VALID,148,VALID,0.967949,
2002-02-07, 02:44:00,VALID,917.137,VALID,0,VALID,95.4123,VALID,-0.0849042,VALID,18.6132,VALID,150,VALID,1.20826,
2002-02-07, 02:45:00,VALID,917.134,VALID,0,VALID,95.5242,VALID,-0.101885,VALID,18.6067,VALID,156,VALID,1.29527,
2002-02-07, 02:46:00,VALID,917.14,VALID,0,VALID,95.5865,VALID,-0.101885,VALID,18.6035,VALID,152,VALID,1.24609,
2002-02-07, 02:47:00,VALID,917.141,VALID,0,VALID,95.6119,VALID,-0.101885,VALID,18.5836,VALID,154,VALID,1.24897,
2002-02-07, 02:48:00,VALID,917.135,VALID,0,VALID,95.6158,VALID,-0.101885,VALID,18.5744,VALID,154,VALID,1.49501,
2002-02-07, 02:49:00,VALID,917.124,VALID,0,VALID,95.6412,VALID,-0.101885,VALID,18.5451,VALID,155,VALID,1.51367,
2002-02-07, 02:50:00,VALID,917.128,VALID,0,VALID,95.659,VALID,-0.0849042,VALID,18.5389,VALID,153,VALID,1.65051,
2002-02-07, 02:51:00,VALID,917.12,VALID,0,VALID,95.6933,VALID,-0.101885,VALID,18.5389,VALID,148,VALID,1.53062,
2002-02-07, 02:52:00,VALID,917.119,VALID,0,VALID,95.6488,VALID,-0.101885,VALID,18.5548,VALID,150,VALID,1.70613,
2002-02-07, 02:53:00,VALID,917.114,VALID,0,VALID,95.5458,VALID,-0.0679233,VALID,18.5809,VALID,150,VALID,1.93189,
2002-02-07, 02:54:00,VALID,917.131,VALID,0,VALID,95.3004,VALID,0.0509425,VALID,18.5956,VALID,149,VALID,1.75962,
2002-02-07, 02:55:00,VALID,917.149,VALID,0,VALID,95.0702,VALID,0,VALID,18.6247,VALID,153,VALID,1.81339,
2002-02-07, 02:56:00,VALID,917.15,VALID,0,VALID,94.924,VALID,0,VALID,18.6406,VALID,152,VALID,1.50996,
2002-02-07, 02:57:00,VALID,917.15,VALID,0,VALID,94.7206,VALID,0.0169808,VALID,18.6443,VALID,148,VALID,1.725,
2002-02-07, 02:58:00,VALID,917.141,VALID,0,VALID,94.5972,VALID,0,VALID,18.6572,VALID,142,VALID,1.93379,
2002-02-07, 02:59:00,VALID,917.118,VALID,0,VALID,94.5247,VALID,0,VALID,18.6572,VALID,152,VALID,1.51668,
2002-02-07, 03:00:00,VALID,917.094,VALID,0,VALID,94.4866,VALID,-0.0169808,VALID,18.6699,VALID,150,VALID,1.79015,
2002-02-07, 03:01:00,VALID,917.077,VALID,0,VALID,94.5273,VALID,0.0169808,VALID,18.6828,VALID,151,VALID,1.74621,
2002-02-07, 03:02:00,VALID,917.059,VALID,0,VALID,94.4891,VALID,0,VALID,18.7031,VALID,150,VALID,1.94172,
2002-02-07, 03:03:00,VALID,917.058,VALID,0,VALID,94.3963,VALID,0,VALID,18.6925,VALID,149,VALID,1.78125,
2002-02-07, 03:04:00,VALID,917.036,VALID,0,VALID,94.1827,VALID,0,VALID,18.7049,VALID,146,VALID,1.99179,
2002-02-07, 03:05:00,VALID,917.038,VALID,0,VALID,93.9881,VALID,0,VALID,18.7216,VALID,150,VALID,1.83494,
2002-02-07, 03:06:00,VALID,917.047,VALID,0,VALID,93.8317,VALID,-0.0169808,VALID,18.7151,VALID,157,VALID,2.2096,
2002-02-07, 03:07:00,VALID,917.04,VALID,0,VALID,93.8559,VALID,0,VALID,18.696,VALID,146,VALID,1.95333,
2002-02-07, 03:08:00,VALID,917.051,VALID,0,VALID,93.8711,VALID,0.0169808,VALID,18.6763,VALID,150,VALID,1.89884,
2002-02-07, 03:09:00,VALID,917.049,VALID,0,VALID,93.8075,VALID,-0.0169808,VALID,18.677,VALID,142,VALID,1.67754,
2002-02-07, 03:10:00,VALID,917.054,VALID,0,VALID,93.7885,VALID,0,VALID,18.6602,VALID,147,VALID,0.953547,
2002-02-07, 03:11:00,VALID,917.066,VALID,0,VALID,93.7045,VALID,0,VALID,18.6406,VALID,154,VALID,1.39992,
2002-02-07, 03:12:00,VALID,917.073,VALID,0,VALID,93.4871,VALID,0.0169808,VALID,18.6383,VALID,139,VALID,1.4401,
2002-02-07, 03:13:00,VALID,917.076,VALID,0,VALID,93.0408,VALID,0,VALID,18.6279,VALID,150,VALID,2.11582,
2002-02-07, 03:14:00,VALID,917.061,VALID,0,VALID,92.8399,VALID,0,VALID,18.6249,VALID,154,VALID,1.86348,
2002-02-07, 03:15:00,VALID,917.065,VALID,0,VALID,92.7101,VALID,0,VALID,18.6214,VALID,149,VALID,1.78666,
2002-02-07, 03:16:00,VALID,917.068,VALID,0,VALID,92.513,VALID,-0.0169808,VALID,18.6053,VALID,155,VALID,1.81791,
2002-02-07, 03:17:00,VALID,917.062,VALID,0,VALID,92.0604,VALID,-0.0169808,VALID,18.5991,VALID,154,VALID,2.15201,
2002-02-07, 03:18:00,VALID,917.06,VALID,0,VALID,91.7107,VALID,0,VALID,18.615,VALID,145,VALID,2.4401,
2002-02-07, 03:19:00,VALID,917.043,VALID,0,VALID,91.4068,VALID,0,VALID,18.647,VALID,146,VALID,2.37356,
2002-02-07, 03:20:00,VALID,917.037,VALID,0,VALID,91.2529,VALID,0,VALID,18.6763,VALID,148,VALID,2.26789,
2002-02-07, 03:21:00,VALID,917.033,VALID,0,VALID,91.1944,VALID,0,VALID,18.696,VALID,145,VALID,2.31858,
2002-02-07, 03:22:00,VALID,917.035,VALID,0,VALID,91.3165,VALID,0,VALID,18.7287,VALID,148,VALID,2.07205,
2002-02-07, 03:23:00,VALID,917.037,VALID,0,VALID,91.3661,VALID,0,VALID,18.7342,VALID,146,VALID,2.05561,
2002-02-07, 03:24:00,VALID,917.049,VALID,0,VALID,91.3139,VALID,0,VALID,18.7834,VALID,150,VALID,2.12162,
2002-02-07, 03:25:00,VALID,917.057,VALID,0,VALID,91.1893,VALID,0,VALID,18.8058,VALID,144,VALID,1.85437,
2002-02-07, 03:26:00,VALID,917.053,VALID,0,VALID,91.0037,VALID,-0.0169808,VALID,18.8318,VALID,152,VALID,2.25741,
2002-02-07, 03:27:00,VALID,917.04,VALID,0,VALID,90.9998,VALID,0.0169808,VALID,18.8604,VALID,154,VALID,1.91046,
2002-02-07, 03:28:00,VALID,917.044,VALID,0,VALID,90.7811,VALID,0,VALID,18.89,VALID,151,VALID,1.82031,
2002-02-07, 03:29:00,VALID,917.044,VALID,0,VALID,90.6756,VALID,0.0169808,VALID,18.8994,VALID,148,VALID,1.99043,
2002-02-07, 03:30:00,VALID,917.043,VALID,0,VALID,90.7112,VALID,-0.0339617,VALID,18.8932,VALID,154,VALID,2.02852,
2002-02-07, 03:31:00,VALID,917.056,VALID,0,VALID,90.8587,VALID,-0.0169808,VALID,18.8962,VALID,149,VALID,2.07363,